Location: Aalen
(48.8330°N, 10.1000°E)
Time: 15:58:45
(UTC+02:00)

UWE-3 - Pass Details

Date: 07 April 2023
Orbit: 576 x 669 km, 97.7° (Epoch: 02 June)

Event Time Altitude Azimuth Distance (km) Brightness Sun altitude
Rises 03:47:43 0° 19° (NNE) 2,950 ? -26.0°
Reaches altitude 10° 03:50:06 10° 28° (NNE) 2,020 ? -25.7°
Maximum altitude 03:54:12 37° 97° (E) 958 ? -25.3°
Enters shadow 03:55:05 34° 125° (SE) 1,027 ? -25.2°
